Regional Weather Roundup
Issued by NWS

Home | Current Version | Previous Version | Graphics & Text | Print | Product List | Glossary On
Versions: 1 2 3 4 5 6 7 8 9 10 11 12 13 14 15 16 17 18 19 20 21 22 23 24 25 26 27 28 29 30 31 32 33 34 35 36 37 38 39 40 41 42 43 44 45 46 47 48 49 50
000
ASUS45 KBOI 300910
RWRID

IDAHO REGIONAL WEATHER ROUNDUP
NATIONAL WEATHER SERVICE BOISE ID
300 AM MDT SUN APR 30 2017

NOTE: "FAIR" INDICATES FEW OR NO CLOUDS BELOW 12000 FEET
WITH NO SIGNIFICANT WEATHER AND/OR OBSTRUCTIONS TO VISIBILITY

IDZ012-014-301000-
SOUTHWEST IDAHO


CITY           SKY/WX    TMP DP  RH WIND       PRES   REMARKS
BOISE          CLOUDY    49  30  48 SE7       30.11F
CALDWELL       CLOUDY    44  37  76 CALM      30.12F
MOUNTAIN HOME  CLOUDY    44  38  77 E8        30.11F
$$

IDZ016-017-301000-
SOUTHCENTRAL IDAHO


CITY           SKY/WX    TMP DP  RH WIND       PRES   REMARKS
BURLEY         PTCLDY    41  26  55 SW12      30.14S
JEROME         PTCLDY    43  29  57 SE7       30.15F
TWIN FALLS     CLOUDY    42  29  59 S12       30.15S
$$

IDZ019>023-301000-
SOUTHEAST IDAHO


CITY           SKY/WX    TMP DP  RH WIND       PRES   REMARKS
IDAHO FALLS    CLOUDY    42  25  50 S13       30.13F
POCATELLO      CLOUDY    38  26  62 SW9       30.15S WCI  31
REXBURG        CLEAR     42  24  49 S14       30.11S
$$

IDZ006-010-011-018-031-032-301000-
CENTRAL IDAHO MOUNTAINS


CITY           SKY/WX    TMP DP  RH WIND       PRES   REMARKS
MCCALL         CLOUDY    39  30  70 CALM      30.13F
HAILEY         CLOUDY    37  28  70 NW8       30.15F WCI  31
STANLEY          N/A     33  23  66 CALM      30.18F
SALMON         CLOUDY   N/A N/A N/A MISG        N/A
CHALLIS        CLOUDY    45  14  28 S3        30.12S
$$

IDZ002-004-006-007-026-301000-
NORTHERN IDAHO


CITY           SKY/WX    TMP DP  RH WIND       PRES   REMARKS
LEWISTON       LGT RAIN  54  44  69 E5        30.06F
LOWELL           N/A     47  42  83 CALM      30.13S
COEUR D`ALENE  LGT RAIN  47  36  65 S13       30.04F
MULLAN PASS    CLOUDY    31  27  85 SW7       30.02F WCI  24
$$



USA.gov is the U.S. government's official web portal to all federal, state and local government web resources and services.